GW3958 Weather Reports


time (UTC)temp
C
wind
direction
speed
KPH
gust
KPH
rain 1hr
cm
rain 24hr
cm
rain mn
cm
humidity
%
barometer
mb
20260504174520 18 196 0.0 4.8 0.00 0.00 0.00 55 1012.8
20260504173022 19 196 0.0 4.8 0.00 0.00 0.00 52 1012.7
20260504171509 20 197 0.0 1.6 0.00 0.00 0.00 51 1012.6
20260504081537 18 184 3.2 12.9 0.00 0.00 0.00 45 1015.0
20260504050019 13 173 8.0 25.7 0.00 0.00 0.00 51 1014.4
20260504044505 13 141 4.8 14.5 0.00 0.00 0.00 52 1014.4
20260504043008 13 173 8.0 22.5 0.00 0.00 0.00 51 1014.5
20260504041513 13 173 4.8 25.7 0.00 0.00 0.00 51 1014.4
20260504040016 13 173 6.4 33.8 0.00 0.00 0.00 51 1014.5
20260504034517 13 231 4.8 16.1 0.00 0.00 0.00 51 1014.5
20260504033019 13 173 8.0 17.7 0.00 0.00 0.00 50 1014.5
20260504031510 13 50 4.8 17.7 0.00 0.00 0.00 50 1014.5
20260504030024 13 173 1.6 14.5 0.00 0.00 0.00 49 1014.5
20260504024521 13 173 3.2 14.5 0.00 0.00 0.00 49 1014.5
20260504023021 13 173 3.2 17.7 0.00 0.00 0.00 48 1014.4
20260504021522 13 198 9.7 19.3 0.00 0.00 0.00 48 1014.5
20260504020014 13 82 6.4 17.7 0.00 0.00 0.00 48 1014.3
20260504014526 13 160 8.0 19.3 0.00 0.00 0.00 47 1014.3
20260504013034 14 173 8.0 20.9 0.00 0.00 0.00 47 1014.3
20260504011523 14 135 4.8 20.9 0.00 0.00 0.00 46 1014.2
20260504010026 14 131 8.0 17.7 0.00 0.00 0.00 46 1014.2
20260504004514 14 173 9.7 19.3 0.00 0.00 0.00 45 1014.2
20260504003019 15 186 4.8 27.4 0.00 0.00 0.00 45 1014.1
20260504001524 15 173 9.7 19.3 0.00 0.00 0.00 45 1014.2
20260504000007 15 152 8.0 24.1 0.00 0.00 0.00 45 1014.3
20260503234512 15 173 6.4 19.3 0.00 0.00 0.00 45 1014.4
20260503233021 15 160 4.8 19.3 0.00 0.00 0.00 44 1014.5
20260503231520 15 174 6.4 16.1 0.00 0.00 0.00 45 1014.5
20260503230004 14 174 1.6 12.9 0.00 0.00 0.00 45 1014.8
20260503224509 15 173 1.6 17.7 0.00 0.00 0.00 45 1014.7
20260503223013 14 211 4.8 14.5 0.00 0.00 0.00 45 1014.6
20260503221518 13 174 1.6 4.8 0.00 0.00 0.00 47 1014.8
20260503220024 14 5 1.6 8.0 0.00 0.00 0.00 46 1015.0
20260503214503 14 160 1.6 16.1 0.00 0.00 0.00 46 1015.0
20260503213010 14 159 1.6 8.0 0.00 0.00 0.00 46 1015.1
20260503211514 15 174 3.2 9.7 0.00 0.00 0.00 45 1015.1
20260503210019 15 109 3.2 14.5 0.00 0.00 0.00 44 1015.0
20260503204523 15 174 3.2 14.5 0.00 0.00 0.00 45 1015.1
20260503203013 15 174 6.4 22.5 0.00 0.00 0.00 45 1015.0
20260503201511 15 160 11.3 29.0 0.00 0.00 0.00 45 1014.8
20260503200020 15 203 6.4 19.3 0.00 0.00 0.00 45 1015.0
20260503194534 15 214 8.0 20.9 0.00 0.00 0.00 45 1015.0
20260503193026 15 173 4.8 14.5 0.00 0.00 0.00 46 1015.0
20260503191530 15 153 1.6 12.9 0.00 0.00 0.00 46 1015.1
20260503190017 15 174 1.6 11.3 0.00 0.00 0.00 46 1015.4
20260503184523 14 174 0.0 4.8 0.00 0.00 0.00 47 1015.4
20260503183021 15 174 1.6 6.4 0.00 0.00 0.00 47 1015.3
20260503181522 15 174 0.0 3.2 0.00 0.00 0.00 47 1015.2
20260503180033 16 93 0.0 4.8 0.00 0.00 0.00 44 1015.2